When you browse on this site, cookies collect data to enhance your experience and personalize the content and advertising you see.
Visit our Privacy Policy to learn more. By continuing to use the site, you agree to this use of cookies and data.

Meteo orario Shrewsbury

Oggi, 7 Luglio, Martedi

Tempo Temperatura Precipitazioni Vento Pressione Umidità
00:00 +9°C° 0 mm 2 m/s 761 mm Hg 93%
01:00 +10°C° 0 mm 2 m/s 761 mm Hg 92%
02:00 +10°C° 0 mm 2 m/s 760 mm Hg 91%
03:00 +12°C° 0 mm 1 m/s 760 mm Hg 90%
04:00 +12°C° 0 mm 2 m/s 760 mm Hg 90%
05:00 +13°C° 0 mm 2 m/s 760 mm Hg 90%
06:00 +13°C° 0 mm 2 m/s 759 mm Hg 92%
07:00 +13°C° 0.1 mm 2 m/s 759 mm Hg 91%
08:00 +13°C° 0.1 mm 2 m/s 759 mm Hg 90%
09:00 +13°C° 0.1 mm 3 m/s 759 mm Hg 89%
10:00 +14°C° 0.3 mm 2 m/s 759 mm Hg 90%
11:00 +14°C° 0.3 mm 2 m/s 758 mm Hg 90%
12:00 +14°C° 0 mm 2 m/s 758 mm Hg 92%
13:00 +13°C° 0.9 mm 2 m/s 758 mm Hg 93%
14:00 +13°C° 0.9 mm 2 m/s 757 mm Hg 94%
15:00 +13°C° 0.9 mm 2 m/s 757 mm Hg 94%
16:00 +13°C° 0.6 mm 2 m/s 756 mm Hg 95%
17:00 +13°C° 0.6 mm 2 m/s 756 mm Hg 96%
18:00 +12°C° 0.6 mm 3 m/s 755 mm Hg 97%
19:00 +13°C° 1 mm 2 m/s 755 mm Hg 97%
20:00 +14°C° 1 mm 2 m/s 755 mm Hg 98%
21:00 +14°C° 1 mm 2 m/s 755 mm Hg 98%
22:00 +15°C° 0.8 mm 2 m/s 754 mm Hg 98%
23:00 +15°C° 0.8 mm 2 m/s 754 mm Hg 98%

Domani, 8 Luglio, Mercoledi

Tempo Temperatura Precipitazioni Vento Pressione Umidità
00:00 +15°C° 0.8 mm 2 m/s 754 mm Hg 98%
01:00 +14°C° 0.2 mm 2 m/s 754 mm Hg 98%
02:00 +14°C° 0.2 mm 2 m/s 754 mm Hg 98%
03:00 +14°C° 0.2 mm 2 m/s 754 mm Hg 97%
04:00 +14°C° 0 mm 2 m/s 754 mm Hg 97%
05:00 +14°C° 0 mm 1 m/s 754 mm Hg 97%
06:00 +13°C° 0 mm 1 m/s 754 mm Hg 97%
07:00 +14°C° 0 mm 1 m/s 755 mm Hg 95%
08:00 +14°C° 0 mm 1 m/s 755 mm Hg 93%
09:00 +15°C° 0 mm 2 m/s 755 mm Hg 91%
10:00 +16°C° 0 mm 2 m/s 755 mm Hg 89%
11:00 +16°C° 0 mm 2 m/s 756 mm Hg 86%
12:00 +17°C° 0 mm 2 m/s 756 mm Hg 84%
13:00 +17°C° 0.1 mm 2 m/s 756 mm Hg 85%
14:00 +18°C° 0.1 mm 2 m/s 755 mm Hg 85%
15:00 +18°C° 0.1 mm 2 m/s 755 mm Hg 86%
16:00 +17°C° 0.5 mm 2 m/s 755 mm Hg 90%
17:00 +16°C° 0.5 mm 2 m/s 755 mm Hg 94%
18:00 +15°C° 0.5 mm 2 m/s 754 mm Hg 97%
19:00 +15°C° 0.5 mm 2 m/s 754 mm Hg 98%
20:00 +16°C° 0.5 mm 2 m/s 754 mm Hg 98%
21:00 +16°C° 0.5 mm 3 m/s 754 mm Hg 98%
22:00 +16°C° 0.1 mm 3 m/s 754 mm Hg 97%
23:00 +15°C° 0.1 mm 4 m/s 754 mm Hg 96%

Dopodomani, 9 Luglio, Giovedi

Tempo Temperatura Precipitazioni Vento Pressione Umidità
00:00 +15°C° 0.1 mm 4 m/s 753 mm Hg 95%
01:00 +15°C° 0.1 mm 4 m/s 753 mm Hg 95%
02:00 +15°C° 0.1 mm 4 m/s 753 mm Hg 95%
03:00 +14°C° 0.1 mm 3 m/s 752 mm Hg 95%
04:00 +16°C° 0.1 mm 3 m/s 752 mm Hg 95%
05:00 +16°C° 0.1 mm 3 m/s 752 mm Hg 96%
06:00 +16°C° 0.1 mm 3 m/s 752 mm Hg 96%
07:00 +17°C° 0.1 mm 3 m/s 751 mm Hg 94%
08:00 +17°C° 0.1 mm 4 m/s 751 mm Hg 93%
09:00 +18°C° 0.1 mm 4 m/s 751 mm Hg 91%
10:00 +18°C° 0.1 mm 4 m/s 751 mm Hg 91%
11:00 +18°C° 0.1 mm 4 m/s 751 mm Hg 91%
12:00 +18°C° 0.1 mm 4 m/s 751 mm Hg 91%
13:00 +18°C° 0.1 mm 4 m/s 751 mm Hg 90%
14:00 +18°C° 0.1 mm 4 m/s 751 mm Hg 90%
15:00 +18°C° 0.1 mm 4 m/s 751 mm Hg 89%
16:00 +16°C° 0.2 mm 5 m/s 751 mm Hg 90%
17:00 +15°C° 0.2 mm 5 m/s 751 mm Hg 92%
18:00 +14°C° 0.2 mm 5 m/s 751 mm Hg 93%
19:00 +13°C° 0 mm 5 m/s 752 mm Hg 93%
20:00 +12°C° 0 mm 5 m/s 752 mm Hg 93%
21:00 +12°C° 0 mm 4 m/s 753 mm Hg 93%
22:00 +12°C° 0 mm 4 m/s 753 mm Hg 92%
23:00 +10°C° 0 mm 5 m/s 753 mm Hg 92%

10 Luglio, Venerdi

Tempo Temperatura Precipitazioni Vento Pressione Umidità
00:00 +10°C° 0 mm 5 m/s 754 mm Hg 91%
01:00 +9°C° 0 mm 5 m/s 754 mm Hg 91%
02:00 +9°C° 0 mm 5 m/s 754 mm Hg 90%
03:00 +8°C° 0 mm 5 m/s 754 mm Hg 90%
04:00 +8°C° 0 mm 5 m/s 755 mm Hg 89%
05:00 +9°C° 0 mm 5 m/s 755 mm Hg 87%
06:00 +9°C° 0 mm 5 m/s 755 mm Hg 86%
07:00 +10°C° 0 mm 6 m/s 756 mm Hg 83%
08:00 +11°C° 0 mm 6 m/s 756 mm Hg 81%
09:00 +12°C° 0 mm 7 m/s 757 mm Hg 79%
10:00 +12°C° 0.2 mm 7 m/s 757 mm Hg 77%
11:00 +14°C° 0.2 mm 7 m/s 757 mm Hg 75%
12:00 +15°C° 0.2 mm 7 m/s 758 mm Hg 74%
13:00 +15°C° 0 mm 7 m/s 758 mm Hg 70%
14:00 +16°C° 0 mm 7 m/s 758 mm Hg 67%
15:00 +16°C° 0 mm 7 m/s 758 mm Hg 64%
16:00 +16°C° 0 mm 7 m/s 759 mm Hg 66%
17:00 +15°C° 0 mm 6 m/s 759 mm Hg 68%
18:00 +14°C° 0 mm 5 m/s 759 mm Hg 70%
19:00 +13°C° 0 mm 5 m/s 760 mm Hg 75%
20:00 +11°C° 0 mm 4 m/s 761 mm Hg 79%
21:00 +10°C° 0 mm 3 m/s 761 mm Hg 84%
22:00 +9°C° 0 mm 3 m/s 761 mm Hg 86%
23:00 +9°C° 0 mm 3 m/s 762 mm Hg 88%

11 Luglio, Sabato

Tempo Temperatura Precipitazioni Vento Pressione Umidità
00:00 +8°C° 0 mm 3 m/s 762 mm Hg 91%
01:00 +8°C° 0 mm 3 m/s 762 mm Hg 92%
02:00 +8°C° 0 mm 3 m/s 762 mm Hg 93%
03:00 +8°C° 0 mm 2 m/s 763 mm Hg 94%
04:00 +9°C° 0 mm 3 m/s 763 mm Hg 92%
05:00 +9°C° 0 mm 3 m/s 763 mm Hg 90%
06:00 +10°C° 0 mm 3 m/s 763 mm Hg 88%
07:00 +11°C° 0 mm 3 m/s 763 mm Hg 83%
08:00 +13°C° 0 mm 3 m/s 764 mm Hg 78%
09:00 +14°C° 0 mm 4 m/s 764 mm Hg 72%
10:00 +16°C° 0 mm 3 m/s 764 mm Hg 70%
11:00 +16°C° 0 mm 3 m/s 764 mm Hg 68%
12:00 +17°C° 0 mm 3 m/s 764 mm Hg 66%
13:00 +17°C° 0 mm 3 m/s 764 mm Hg 65%
14:00 +18°C° 0 mm 3 m/s 764 mm Hg 64%
15:00 +18°C° 0 mm 2 m/s 764 mm Hg 63%
16:00 +18°C° 0 mm 2 m/s 764 mm Hg 67%
17:00 +17°C° 0 mm 3 m/s 764 mm Hg 71%
18:00 +17°C° 0 mm 3 m/s 764 mm Hg 75%
19:00 +15°C° 0 mm 2 m/s 764 mm Hg 78%
20:00 +13°C° 0 mm 2 m/s 765 mm Hg 82%
21:00 +12°C° 0 mm 1 m/s 765 mm Hg 86%
22:00 +11°C° 0 mm 1 m/s 765 mm Hg 86%
23:00 +11°C° 0 mm 1 m/s 765 mm Hg 87%

12 Luglio, Domenica

Tempo Temperatura Precipitazioni Vento Pressione Umidità
00:00 +9°C° 0 mm 0 m/s 765 mm Hg 88%
01:00 +9°C° 0 mm 0 m/s 765 mm Hg 88%
02:00 +8°C° 0 mm 0 m/s 765 mm Hg 89%
03:00 +8°C° 0 mm 0 m/s 765 mm Hg 90%
04:00 +9°C° 0 mm 0 m/s 765 mm Hg 88%
05:00 +11°C° 0 mm 1 m/s 765 mm Hg 87%
06:00 +12°C° 0 mm 1 m/s 765 mm Hg 85%
07:00 +13°C° 0 mm 1 m/s 765 mm Hg 80%
08:00 +15°C° 0 mm 2 m/s 765 mm Hg 76%
09:00 +17°C° 0 mm 2 m/s 765 mm Hg 71%
10:00 +18°C° 0 mm 2 m/s 765 mm Hg 67%
11:00 +19°C° 0 mm 2 m/s 765 mm Hg 63%
12:00 +20°C° 0 mm 2 m/s 765 mm Hg 59%
13:00 +20°C° 0 mm 2 m/s 765 mm Hg 59%
14:00 +21°C° 0 mm 2 m/s 764 mm Hg 59%
15:00 +21°C° 0 mm 2 m/s 764 mm Hg 58%
16:00 +21°C° 0 mm 2 m/s 764 mm Hg 63%
17:00 +20°C° 0 mm 2 m/s 764 mm Hg 67%
18:00 +20°C° 0 mm 2 m/s 764 mm Hg 72%
19:00 +18°C° 0 mm 2 m/s 764 mm Hg 75%
20:00 +16°C° 0 mm 1 m/s 764 mm Hg 79%
21:00 +14°C° 0 mm 1 m/s 764 mm Hg 82%
22:00 +13°C° 0 mm 1 m/s 764 mm Hg 83%
23:00 +12°C° 0 mm 1 m/s 764 mm Hg 84%
Mostrare altro